TimeAKST,TemperatureF,Dew PointF,Humidity,Sea Level PressureIn,VisibilityMPH,Wind Direction,Wind SpeedMPH,Gust SpeedMPH,PrecipitationIn,Events,Conditions,WindDirDegrees,DateUTC
12:16 AM,-22.0,-9999,N/A,30.10,10.0,North,3.5,-,N/A,,Clear,10,2013-01-22 09:16:00
12:36 AM,-20.2,-29.2,63,30.10,10.0,North,6.9,-,N/A,,Clear,10,2013-01-22 09:36:00
12:56 AM,-20.2,-9999,N/A,30.11,10.0,North,5.8,-,N/A,,Clear,10,2013-01-22 09:56:00
1:16 AM,-20.2,-29.2,63,30.11,10.0,NNE,6.9,-,N/A,,Partly Cloudy,20,2013-01-22 10:16:00
1:36 AM,-20.2,-9999,N/A,30.11,10.0,North,5.8,-,N/A,,Clear,360,2013-01-22 10:36:00
1:56 AM,-20.2,-29.2,63,30.11,10.0,North,5.8,-,N/A,,Clear,360,2013-01-22 10:56:00
2:16 AM,-22.0,-9999,N/A,30.10,10.0,North,5.8,-,N/A,,Clear,10,2013-01-22 11:16:00
2:36 AM,-22.0,-9999,N/A,30.09,10.0,North,5.8,-,N/A,,Clear,360,2013-01-22 11:36:00
2:56 AM,-22.0,-9999,N/A,30.08,10.0,North,6.9,-,N/A,,Clear,10,2013-01-22 11:56:00
3:16 AM,-22.0,-9999,N/A,30.07,10.0,NNE,6.9,-,N/A,,Clear,20,2013-01-22 12:16:00
3:36 AM,-22.0,-9999,N/A,30.07,10.0,North,6.9,-,N/A,,Clear,360,2013-01-22 12:36:00
3:56 AM,-22.0,-9999,N/A,30.06,10.0,North,8.1,-,N/A,,Partly Cloudy,10,2013-01-22 12:56:00
4:16 AM,-22.0,-9999,N/A,30.06,5.0,NNE,6.9,-,N/A,,Partly Cloudy,20,2013-01-22 13:16:00
4:36 AM,-22.0,-9999,N/A,30.05,5.0,North,5.8,-,N/A,,Mostly Cloudy,350,2013-01-22 13:36:00
4:56 AM,-20.2,-9999,N/A,30.05,3.0,North,5.8,-,N/A,,Mostly Cloudy,360,2013-01-22 13:56:00
5:16 AM,-22.0,-9999,N/A,30.04,3.0,North,6.9,-,N/A,,Partly Cloudy,360,2013-01-22 14:16:00
5:36 AM,-20.2,-29.2,63,30.04,8.0,North,4.6,-,N/A,,Clear,350,2013-01-22 14:36:00
5:56 AM,-22.0,-9999,N/A,30.04,10.0,North,4.6,-,N/A,,Partly Cloudy,360,2013-01-22 14:56:00
6:16 AM,-23.8,-9999,N/A,30.03,5.0,North,5.8,-,N/A,,Mostly Cloudy,360,2013-01-22 15:16:00
6:56 AM,-23.8,-9999,N/A,30.03,8.0,North,5.8,-,N/A,,Overcast,350,2013-01-22 15:56:00
7:16 AM,-23.8,-9999,N/A,30.03,8.0,NNW,4.6,-,N/A,,Overcast,330,2013-01-22 16:16:00
7:36 AM,-23.8,-9999,N/A,30.03,4.0,North,8.1,-,N/A,,Overcast,360,2013-01-22 16:36:00
7:56 AM,-22.0,-9999,N/A,30.03,2.0,North,5.8,-,N/A,,Overcast,10,2013-01-22 16:56:00
8:16 AM,-23.8,-9999,N/A,30.02,5.0,North,4.6,-,N/A,,Overcast,350,2013-01-22 17:16:00
8:36 AM,-23.8,-9999,N/A,30.02,4.0,Calm,Calm,-,N/A,,Overcast,0,2013-01-22 17:36:00
8:56 AM,-22.0,-9999,N/A,30.02,5.0,North,3.5,-,N/A,,Mostly Cloudy,350,2013-01-22 17:56:00
9:16 AM,-22.0,-9999,N/A,30.02,6.0,NNE,6.9,-,N/A,,Mostly Cloudy,20,2013-01-22 18:16:00
9:36 AM,-23.8,-9999,N/A,30.01,6.0,NNE,3.5,-,N/A,,Scattered Clouds,20,2013-01-22 18:36:00
9:56 AM,-20.2,-9999,N/A,30.00,10.0,North,5.8,-,N/A,,Mostly Cloudy,360,2013-01-22 18:56:00
10:16 AM,-22.0,-29.2,69,30.00,8.0,NNE,6.9,-,N/A,,Partly Cloudy,30,2013-01-22 19:16:00
10:36 AM,-22.0,-9999,N/A,30.00,3.0,NNE,5.8,-,N/A,,Clear,20,2013-01-22 19:36:00
10:56 AM,-23.8,-9999,N/A,30.00,10.0,NNE,6.9,-,N/A,,Clear,20,2013-01-22 19:56:00
11:16 AM,-23.8,-9999,N/A,30.00,10.0,NNE,5.8,-,N/A,,Clear,20,2013-01-22 20:16:00
11:36 AM,-20.2,-29.2,63,30.00,7.0,NNE,5.8,-,N/A,,Clear,20,2013-01-22 20:36:00
11:56 AM,-20.2,-20.2,100,30.00,4.0,North,5.8,-,N/A,,Clear,360,2013-01-22 20:56:00
12:16 PM,-22.0,-9999,N/A,30.00,5.0,North,5.8,-,N/A,,Clear,360,2013-01-22 21:16:00
12:36 PM,-22.0,-9999,N/A,30.00,5.0,North,4.6,-,N/A,,Clear,360,2013-01-22 21:36:00
12:56 PM,-22.0,-9999,N/A,30.00,9.0,North,4.6,-,N/A,,Clear,360,2013-01-22 21:56:00
1:16 PM,-22.0,-9999,N/A,30.00,4.0,North,4.6,-,N/A,,Clear,360,2013-01-22 22:16:00
1:36 PM,-23.8,-9999,N/A,30.00,8.0,North,4.6,-,N/A,,Clear,360,2013-01-22 22:36:00
1:56 PM,-23.8,-9999,N/A,30.00,7.0,North,6.9,-,N/A,,Clear,10,2013-01-22 22:56:00
2:16 PM,-23.8,-9999,N/A,29.99,5.0,North,3.5,-,N/A,,Clear,350,2013-01-22 23:16:00
2:36 PM,-25.6,-9999,N/A,29.98,9.0,North,5.8,-,N/A,,Clear,360,2013-01-22 23:36:00
2:56 PM,-23.8,-9999,N/A,29.98,5.0,North,4.6,-,N/A,,Clear,360,2013-01-22 23:56:00
3:16 PM,-23.8,-9999,N/A,29.98,9.0,North,4.6,-,N/A,,Clear,350,2013-01-23 00:16:00
3:36 PM,-23.8,-9999,N/A,29.98,4.0,North,3.5,-,N/A,,Clear,10,2013-01-23 00:36:00
3:56 PM,-23.8,-9999,N/A,29.97,5.0,North,4.6,-,N/A,,Clear,10,2013-01-23 00:56:00
4:16 PM,-25.6,-9999,N/A,29.96,8.0,North,5.8,-,N/A,,Clear,10,2013-01-23 01:16:00
4:36 PM,-25.6,-9999,N/A,29.96,7.0,North,3.5,-,N/A,,Clear,360,2013-01-23 01:36:00
4:56 PM,-25.6,-9999,N/A,29.96,7.0,North,3.5,-,N/A,,Clear,360,2013-01-23 01:56:00
5:16 PM,-25.6,-9999,N/A,29.95,8.0,North,3.5,-,N/A,,Clear,10,2013-01-23 02:16:00
5:36 PM,-25.6,-9999,N/A,29.95,9.0,North,4.6,-,N/A,,Clear,360,2013-01-23 02:36:00
5:56 PM,-25.6,-9999,N/A,29.94,10.0,North,4.6,-,N/A,,Clear,10,2013-01-23 02:56:00
6:16 PM,-25.6,-9999,N/A,29.94,8.0,North,4.6,-,N/A,,Clear,360,2013-01-23 03:16:00
6:36 PM,-25.6,-9999,N/A,29.94,9.0,North,4.6,-,N/A,,Clear,10,2013-01-23 03:36:00
6:56 PM,-25.6,-9999,N/A,29.94,7.0,North,4.6,-,N/A,,Clear,10,2013-01-23 03:56:00
7:16 PM,-25.6,-9999,N/A,29.94,9.0,North,4.6,-,N/A,,Clear,360,2013-01-23 04:16:00
7:36 PM,-25.6,-9999,N/A,29.94,9.0,North,3.5,-,N/A,,Clear,360,2013-01-23 04:36:00
7:56 PM,-25.6,-9999,N/A,29.94,10.0,North,4.6,-,N/A,,Clear,360,2013-01-23 04:56:00
8:16 PM,-25.6,-9999,N/A,29.94,8.0,North,4.6,-,N/A,,Clear,350,2013-01-23 05:16:00
8:36 PM,-25.6,-9999,N/A,29.94,10.0,North,5.8,-,N/A,,Clear,360,2013-01-23 05:36:00
8:56 PM,-25.6,-9999,N/A,29.94,8.0,NNW,4.6,-,N/A,,Clear,340,2013-01-23 05:56:00
9:16 PM,-25.6,-9999,N/A,29.95,10.0,North,4.6,-,N/A,,Clear,360,2013-01-23 06:16:00
9:36 PM,-27.4,-9999,N/A,29.95,10.0,North,5.8,-,N/A,,Clear,360,2013-01-23 06:36:00
9:56 PM,-27.4,-9999,N/A,29.95,10.0,North,4.6,-,N/A,,Clear,350,2013-01-23 06:56:00
10:16 PM,-27.4,-9999,N/A,29.95,10.0,North,4.6,-,N/A,,Clear,350,2013-01-23 07:16:00
10:36 PM,-27.4,-9999,N/A,29.95,10.0,North,3.5,-,N/A,,Clear,360,2013-01-23 07:36:00
10:56 PM,-27.4,-9999,N/A,29.95,10.0,North,4.6,-,N/A,,Clear,360,2013-01-23 07:56:00
11:16 PM,-27.4,-9999,N/A,29.95,10.0,North,3.5,-,N/A,,Clear,350,2013-01-23 08:16:00
11:36 PM,-29.2,-9999,N/A,29.95,10.0,North,3.5,-,N/A,,Clear,360,2013-01-23 08:36:00
11:56 PM,-29.2,-9999,N/A,29.95,9.0,North,3.5,-,N/A,,Clear,350,2013-01-23 08:56:00